When you browse on this site, cookies collect data to enhance your experience and personalize the content and advertising you see.
Visit our Privacy Policy to learn more. By continuing to use the site, you agree to this use of cookies and data.
  • In Romania
  • List of Countries
  • For 7 days
  • Water Temperature
  • Satellite Maps
  • Weather Map
  • Weather Widgets
  • user-avatar
    Login

    Hourly Weather Aspach

    Today, 17 July, Wednesday

    Time Temperature Precipitation Wind Pressure Humidity
    00:00 +15°C° 0 mm 1 mps 733 mmHg 80%
    01:00 +14°C° 0 mm 0 mps 733 mmHg 81%
    02:00 +14°C° 0 mm 0 mps 733 mmHg 82%
    03:00 +13°C° 0 mm 0 mps 733 mmHg 83%
    04:00 +13°C° 0 mm 0 mps 732 mmHg 84%
    05:00 +14°C° 0 mm 0 mps 732 mmHg 80%
    06:00 +16°C° 0 mm 0 mps 732 mmHg 76%
    07:00 +17°C° 0 mm 0 mps 732 mmHg 73%
    08:00 +18°C° 0 mm 0 mps 732 mmHg 67%
    09:00 +22°C° 0 mm 1 mps 732 mmHg 61%
    10:00 +24°C° 0 mm 1 mps 732 mmHg 56%
    11:00 +25°C° 0 mm 1 mps 732 mmHg 52%
    12:00 +25°C° 0 mm 2 mps 732 mmHg 49%
    13:00 +26°C° 0 mm 2 mps 732 mmHg 45%
    14:00 +26°C° 0 mm 2 mps 732 mmHg 44%
    15:00 +27°C° 0 mm 2 mps 732 mmHg 43%
    16:00 +27°C° 0 mm 2 mps 732 mmHg 42%
    17:00 +26°C° 0 mm 2 mps 731 mmHg 48%
    18:00 +25°C° 0 mm 1 mps 731 mmHg 54%
    19:00 +22°C° 0 mm 0 mps 731 mmHg 60%
    20:00 +22°C° 0 mm 1 mps 731 mmHg 63%
    21:00 +20°C° 0 mm 1 mps 731 mmHg 67%
    22:00 +19°C° 0 mm 1 mps 731 mmHg 70%
    23:00 +18°C° 0 mm 1 mps 731 mmHg 72%

    Tomorrow, 18 July, Thursday

    Time Temperature Precipitation Wind Pressure Humidity
    00:00 +18°C° 0 mm 1 mps 731 mmHg 74%
    01:00 +16°C° 0 mm 1 mps 731 mmHg 76%
    02:00 +16°C° 0 mm 1 mps 731 mmHg 77%
    03:00 +16°C° 0 mm 1 mps 731 mmHg 77%
    04:00 +14°C° 0 mm 0 mps 731 mmHg 77%
    05:00 +15°C° 0 mm 0 mps 731 mmHg 75%
    06:00 +16°C° 0 mm 0 mps 731 mmHg 72%
    07:00 +17°C° 0 mm 0 mps 731 mmHg 70%
    08:00 +21°C° 0 mm 1 mps 731 mmHg 65%
    09:00 +23°C° 0 mm 1 mps 731 mmHg 59%
    10:00 +24°C° 0 mm 2 mps 731 mmHg 54%
    11:00 +25°C° 0 mm 2 mps 731 mmHg 51%
    12:00 +26°C° 0 mm 2 mps 731 mmHg 48%
    13:00 +27°C° 0 mm 2 mps 731 mmHg 45%
    14:00 +27°C° 0 mm 2 mps 731 mmHg 44%
    15:00 +27°C° 0 mm 2 mps 731 mmHg 44%
    16:00 +27°C° 0 mm 2 mps 731 mmHg 43%
    17:00 +26°C° 0 mm 2 mps 731 mmHg 48%
    18:00 +25°C° 0 mm 2 mps 731 mmHg 54%
    19:00 +24°C° 0 mm 1 mps 731 mmHg 60%
    20:00 +23°C° 0.1 mm 1 mps 731 mmHg 63%
    21:00 +22°C° 0.1 mm 1 mps 732 mmHg 67%
    22:00 +19°C° 0.1 mm 2 mps 732 mmHg 71%
    23:00 +20°C° 0.4 mm 1 mps 732 mmHg 75%

    Day after tomorrow, 19 July, Friday

    Time Temperature Precipitation Wind Pressure Humidity
    00:00 +19°C° 0.4 mm 1 mps 732 mmHg 79%
    01:00 +19°C° 0.4 mm 1 mps 732 mmHg 84%
    02:00 +18°C° 0.3 mm 1 mps 732 mmHg 85%
    03:00 +18°C° 0.3 mm 1 mps 732 mmHg 87%
    04:00 +18°C° 0.3 mm 1 mps 732 mmHg 89%
    05:00 +18°C° 0 mm 1 mps 732 mmHg 87%
    06:00 +19°C° 0 mm 1 mps 733 mmHg 85%
    07:00 +20°C° 0 mm 1 mps 733 mmHg 84%
    08:00 +21°C° 0.1 mm 1 mps 733 mmHg 76%
    09:00 +23°C° 0.1 mm 2 mps 733 mmHg 68%
    10:00 +24°C° 0.1 mm 2 mps 733 mmHg 60%
    11:00 +25°C° 0.1 mm 2 mps 733 mmHg 57%
    12:00 +26°C° 0.1 mm 3 mps 733 mmHg 54%
    13:00 +27°C° 0.1 mm 3 mps 733 mmHg 51%
    14:00 +27°C° 0.1 mm 3 mps 733 mmHg 52%
    15:00 +27°C° 0.1 mm 3 mps 733 mmHg 52%
    16:00 +27°C° 0.1 mm 2 mps 732 mmHg 53%
    17:00 +26°C° 0.1 mm 2 mps 732 mmHg 58%
    18:00 +25°C° 0.1 mm 2 mps 733 mmHg 64%
    19:00 +24°C° 0.1 mm 1 mps 733 mmHg 70%
    20:00 +23°C° 0 mm 1 mps 733 mmHg 73%
    21:00 +21°C° 0 mm 1 mps 733 mmHg 76%
    22:00 +20°C° 0 mm 1 mps 733 mmHg 79%
    23:00 +20°C° 0 mm 1 mps 733 mmHg 81%

    20 July, Saturday

    Time Temperature Precipitation Wind Pressure Humidity
    00:00 +19°C° 0 mm 1 mps 733 mmHg 83%
    01:00 +19°C° 0 mm 1 mps 733 mmHg 85%
    02:00 +18°C° 0 mm 1 mps 733 mmHg 86%
    03:00 +16°C° 0 mm 0 mps 732 mmHg 87%
    04:00 +16°C° 0 mm 0 mps 732 mmHg 88%
    05:00 +19°C° 0 mm 1 mps 732 mmHg 84%
    06:00 +20°C° 0 mm 1 mps 732 mmHg 81%
    07:00 +21°C° 0 mm 1 mps 733 mmHg 77%
    08:00 +23°C° 0 mm 1 mps 733 mmHg 70%
    09:00 +25°C° 0 mm 1 mps 733 mmHg 63%
    10:00 +27°C° 0 mm 2 mps 733 mmHg 56%
    11:00 +28°C° 0 mm 2 mps 733 mmHg 52%
    12:00 +29°C° 0 mm 2 mps 733 mmHg 48%
    13:00 +30°C° 0 mm 2 mps 733 mmHg 44%
    14:00 +30°C° 0 mm 2 mps 733 mmHg 45%
    15:00 +30°C° 0 mm 2 mps 733 mmHg 46%
    16:00 +30°C° 0 mm 2 mps 732 mmHg 48%
    17:00 +29°C° 0 mm 2 mps 733 mmHg 53%
    18:00 +28°C° 0 mm 2 mps 733 mmHg 58%
    19:00 +27°C° 0 mm 1 mps 733 mmHg 63%
    20:00 +25°C° 0.1 mm 1 mps 733 mmHg 67%
    21:00 +23°C° 0.1 mm 1 mps 733 mmHg 72%
    22:00 +22°C° 0.1 mm 1 mps 734 mmHg 76%
    23:00 +21°C° 0.1 mm 1 mps 734 mmHg 78%

    21 July, Sunday

    Time Temperature Precipitation Wind Pressure Humidity
    00:00 +20°C° 0.1 mm 1 mps 734 mmHg 81%
    01:00 +20°C° 0.1 mm 1 mps 734 mmHg 83%
    02:00 +20°C° 0.6 mm 1 mps 734 mmHg 85%
    03:00 +19°C° 0.6 mm 1 mps 734 mmHg 87%
    04:00 +19°C° 0.6 mm 1 mps 734 mmHg 89%
    05:00 +20°C° 0.7 mm 1 mps 734 mmHg 89%
    06:00 +19°C° 0.7 mm 2 mps 735 mmHg 89%
    07:00 +19°C° 0.7 mm 2 mps 735 mmHg 88%
    08:00 +21°C° 0.1 mm 2 mps 736 mmHg 82%
    09:00 +22°C° 0.1 mm 3 mps 736 mmHg 75%
    10:00 +25°C° 0.1 mm 4 mps 736 mmHg 68%
    11:00 +26°C° 0 mm 4 mps 737 mmHg 62%
    12:00 +27°C° 0 mm 4 mps 737 mmHg 57%
    13:00 +27°C° 0 mm 3 mps 737 mmHg 51%
    14:00 +27°C° 0 mm 3 mps 737 mmHg 50%
    15:00 +28°C° 0 mm 3 mps 737 mmHg 49%
    16:00 +28°C° 0 mm 3 mps 737 mmHg 49%
    17:00 +27°C° 0 mm 2 mps 737 mmHg 53%
    18:00 +26°C° 0 mm 2 mps 737 mmHg 58%
    19:00 +25°C° 0 mm 1 mps 737 mmHg 63%
    20:00 +23°C° 0 mm 1 mps 737 mmHg 67%
    21:00 +22°C° 0 mm 1 mps 738 mmHg 70%
    22:00 +20°C° 0 mm 1 mps 738 mmHg 74%
    23:00 +20°C° 0 mm 1 mps 738 mmHg 76%

    22 July, Monday

    Time Temperature Precipitation Wind Pressure Humidity
    00:00 +19°C° 0 mm 1 mps 738 mmHg 78%
    01:00 +19°C° 0 mm 1 mps 738 mmHg 80%
    02:00 +18°C° 0 mm 1 mps 738 mmHg 81%
    03:00 +18°C° 0 mm 1 mps 738 mmHg 83%
    04:00 +18°C° 0 mm 1 mps 738 mmHg 84%
    05:00 +19°C° 0 mm 1 mps 738 mmHg 81%
    06:00 +20°C° 0 mm 1 mps 738 mmHg 78%
    07:00 +21°C° 0 mm 1 mps 738 mmHg 74%
    08:00 +23°C° 0 mm 1 mps 738 mmHg 68%
    09:00 +25°C° 0 mm 2 mps 738 mmHg 62%
    10:00 +27°C° 0 mm 2 mps 738 mmHg 55%
    11:00 +27°C° 0 mm 2 mps 738 mmHg 53%
    12:00 +28°C° 0 mm 2 mps 737 mmHg 50%
    13:00 +29°C° 0 mm 2 mps 737 mmHg 47%
    14:00 +29°C° 0 mm 2 mps 737 mmHg 47%
    15:00 +30°C° 0 mm 3 mps 736 mmHg 47%
    16:00 +30°C° 0 mm 3 mps 736 mmHg 47%
    17:00 +28°C° 0 mm 3 mps 736 mmHg 53%
    18:00 +27°C° 0 mm 3 mps 736 mmHg 60%
    19:00 +26°C° 0 mm 2 mps 736 mmHg 66%
    20:00 +24°C° 0 mm 2 mps 736 mmHg 69%
    21:00 +23°C° 0 mm 2 mps 736 mmHg 71%
    22:00 +20°C° 0 mm 2 mps 736 mmHg 74%
    23:00 +20°C° 0 mm 1 mps 736 mmHg 74%
    Show more